Time,TemperatureF,DewpointF,PressureIn,WindDirection,WindDirectionDegrees,WindSpeedMPH,WindSpeedGustMPH,Humidity,HourlyPrecipIn,Conditions,Clouds,dailyrainin,SoftwareType,DateUTC
2013-08-24 00:00:00,62.7,56.4,30.19,SSE,155,0.0,1.0,80,0.00,,,0.00,WeatherTracker,2013-08-24 05:00:00,
2013-08-24 00:05:00,62.6,56.7,30.19,SSE,155,0.0,3.0,81,0.00,,,0.00,WeatherTracker,2013-08-24 05:05:00,
2013-08-24 00:15:00,62.4,56.5,30.19,SSE,155,0.0,1.0,81,0.00,,,0.00,WeatherTracker,2013-08-24 05:15:00,
2013-08-24 00:20:00,62.2,56.3,30.19,SSE,155,0.0,1.0,81,0.00,,,0.00,WeatherTracker,2013-08-24 05:20:00,
2013-08-24 00:25:00,62.2,56.3,30.20,SSE,155,0.0,1.0,81,0.00,,,0.00,WeatherTracker,2013-08-24 05:25:00,
2013-08-24 00:30:00,62.0,56.1,30.20,SSE,155,0.0,3.0,81,0.00,,,0.00,WeatherTracker,2013-08-24 05:30:00,
2013-08-24 00:35:00,62.0,56.1,30.20,SSE,155,0.0,3.0,81,0.00,,,0.00,WeatherTracker,2013-08-24 05:35:00,
2013-08-24 00:40:00,61.8,55.9,30.20,SSE,155,0.0,0.0,81,0.00,,,0.00,WeatherTracker,2013-08-24 05:40:00,
2013-08-24 00:45:00,61.7,55.8,30.20,SSE,155,0.0,0.0,81,0.00,,,0.00,WeatherTracker,2013-08-24 05:45:00,
2013-08-24 00:55:00,61.5,56.0,30.20,SSE,155,0.0,1.0,82,0.00,,,0.00,WeatherTracker,2013-08-24 05:55:00,
2013-08-24 01:00:00,61.4,55.9,30.20,SSE,155,0.0,1.0,82,0.00,,,0.00,WeatherTracker,2013-08-24 06:00:00,
2013-08-24 01:05:00,61.3,55.8,30.20,SSE,155,0.0,1.0,82,0.00,,,0.00,WeatherTracker,2013-08-24 06:05:00,
2013-08-24 01:10:00,61.1,55.6,30.20,SSE,155,0.0,1.0,82,0.00,,,0.00,WeatherTracker,2013-08-24 06:10:00,
2013-08-24 01:16:00,61.0,55.8,30.20,SSE,155,0.0,1.0,83,0.00,,,0.00,WeatherTracker,2013-08-24 06:16:00,
2013-08-24 01:25:00,60.8,55.6,30.20,SSE,155,0.0,0.0,83,0.00,,,0.00,WeatherTracker,2013-08-24 06:25:00,
2013-08-24 01:30:00,60.7,55.5,30.20,SSE,155,0.0,1.0,83,0.00,,,0.00,WeatherTracker,2013-08-24 06:30:00,
2013-08-24 01:35:00,60.6,55.7,30.20,SSE,155,0.0,1.0,84,0.00,,,0.00,WeatherTracker,2013-08-24 06:35:00,
2013-08-24 01:45:00,60.3,55.4,30.20,SSE,155,0.0,0.0,84,0.00,,,0.00,WeatherTracker,2013-08-24 06:45:00,
2013-08-24 01:50:00,60.2,55.3,30.20,SSE,155,0.0,0.0,84,0.00,,,0.00,WeatherTracker,2013-08-24 06:50:00,
2013-08-24 01:55:00,60.1,55.2,30.20,SSE,155,0.0,0.0,84,0.00,,,0.00,WeatherTracker,2013-08-24 06:55:00,
2013-08-24 02:00:00,60.0,55.1,30.20,SSE,155,0.0,0.0,84,0.00,,,0.00,WeatherTracker,2013-08-24 07:00:00,
2013-08-24 02:10:00,59.7,55.2,30.20,SSE,155,0.0,0.0,85,0.00,,,0.00,WeatherTracker,2013-08-24 07:10:00,
2013-08-24 02:15:00,59.6,55.1,30.20,SSE,155,0.0,0.0,85,0.00,,,0.00,WeatherTracker,2013-08-24 07:15:00,
2013-08-24 02:20:00,59.5,55.0,30.20,SSE,155,0.0,0.0,85,0.00,,,0.00,WeatherTracker,2013-08-24 07:20:00,
2013-08-24 02:25:00,59.4,54.9,30.20,SSE,155,0.0,0.0,85,0.00,,,0.00,WeatherTracker,2013-08-24 07:25:00,
2013-08-24 02:35:00,59.1,54.6,30.20,SSE,155,0.0,0.0,85,0.00,,,0.00,WeatherTracker,2013-08-24 07:35:00,
2013-08-24 02:40:00,59.0,54.8,30.20,SSE,155,0.0,0.0,86,0.00,,,0.00,WeatherTracker,2013-08-24 07:40:00,
2013-08-24 02:45:00,58.9,54.7,30.20,SSE,155,0.0,0.0,86,0.00,,,0.00,WeatherTracker,2013-08-24 07:45:00,
2013-08-24 02:50:00,58.8,54.6,30.21,SSE,155,0.0,0.0,86,0.00,,,0.00,WeatherTracker,2013-08-24 07:50:00,
2013-08-24 02:55:00,58.7,54.5,30.21,SSE,155,0.0,0.0,86,0.00,,,0.00,WeatherTracker,2013-08-24 07:55:00,
2013-08-24 03:05:00,58.6,54.4,30.21,SSE,155,0.0,0.0,86,0.00,,,0.00,WeatherTracker,2013-08-24 08:05:00,
2013-08-24 03:10:00,58.5,54.3,30.21,SSE,155,0.0,0.0,86,0.00,,,0.00,WeatherTracker,2013-08-24 08:10:00,
2013-08-24 03:15:00,58.4,54.2,30.21,SSE,155,0.0,0.0,86,0.00,,,0.00,WeatherTracker,2013-08-24 08:15:00,
2013-08-24 03:20:00,58.3,54.1,30.21,SSE,155,0.0,0.0,86,0.00,,,0.00,WeatherTracker,2013-08-24 08:20:00,
2013-08-24 03:30:00,58.2,54.0,30.21,SSE,155,0.0,0.0,86,0.00,,,0.00,WeatherTracker,2013-08-24 08:30:00,
2013-08-24 03:35:00,58.2,54.0,30.22,SSE,155,0.0,0.0,86,0.00,,,0.00,WeatherTracker,2013-08-24 08:35:00,
2013-08-24 03:40:00,58.2,54.0,30.22,SSE,155,0.0,0.0,86,0.00,,,0.00,WeatherTracker,2013-08-24 08:40:00,
2013-08-24 03:50:00,58.2,54.0,30.22,SSE,155,0.0,0.0,86,0.00,,,0.00,WeatherTracker,2013-08-24 08:50:00,
2013-08-24 03:55:00,58.2,54.0,30.23,SSE,155,0.0,0.0,86,0.00,,,0.00,WeatherTracker,2013-08-24 08:55:00,
2013-08-24 04:00:00,58.1,53.9,30.23,SSE,155,0.0,0.0,86,0.00,,,0.00,WeatherTracker,2013-08-24 09:00:00,
2013-08-24 04:05:00,58.1,53.9,30.23,SSE,155,0.0,0.0,86,0.00,,,0.00,WeatherTracker,2013-08-24 09:05:00,
2013-08-24 04:15:00,58.0,53.8,30.23,SSE,155,0.0,0.0,86,0.00,,,0.00,WeatherTracker,2013-08-24 09:15:00,
2013-08-24 04:20:00,57.9,53.7,30.23,SSE,155,0.0,1.0,86,0.00,,,0.00,WeatherTracker,2013-08-24 09:20:00,
2013-08-24 04:25:00,57.9,53.7,30.23,SSE,155,0.0,1.0,86,0.00,,,0.00,WeatherTracker,2013-08-24 09:25:00,
2013-08-24 04:35:00,57.9,53.7,30.24,SSE,155,0.0,0.0,86,0.00,,,0.00,WeatherTracker,2013-08-24 09:35:00,
2013-08-24 04:40:00,57.9,53.7,30.24,SSE,155,0.0,2.0,86,0.00,,,0.00,WeatherTracker,2013-08-24 09:40:00,
2013-08-24 04:45:00,57.9,54.1,30.24,SSE,155,0.0,2.0,87,0.00,,,0.00,WeatherTracker,2013-08-24 09:45:00,
2013-08-24 04:50:00,57.9,54.1,30.24,SSE,155,0.0,1.0,87,0.00,,,0.00,WeatherTracker,2013-08-24 09:50:00,
2013-08-24 05:00:00,57.9,54.1,30.24,SSE,155,0.0,1.0,87,0.00,,,0.00,WeatherTracker,2013-08-24 10:00:00,
2013-08-24 05:05:00,57.9,54.1,30.24,SSE,155,0.0,1.0,87,0.00,,,0.00,WeatherTracker,2013-08-24 10:05:00,
2013-08-24 05:15:00,57.9,54.1,30.24,SSE,155,0.0,0.0,87,0.00,,,0.00,WeatherTracker,2013-08-24 10:15:00,
2013-08-24 05:20:00,57.9,54.1,30.24,SSE,155,0.0,0.0,87,0.00,,,0.00,WeatherTracker,2013-08-24 10:20:00,
2013-08-24 05:30:00,57.9,54.1,30.24,SSE,155,0.0,1.0,87,0.00,,,0.00,WeatherTracker,2013-08-24 10:30:00,
2013-08-24 05:35:00,57.9,54.1,30.24,SSE,155,0.0,1.0,87,0.00,,,0.00,WeatherTracker,2013-08-24 10:35:00,
2013-08-24 05:40:00,57.8,54.0,30.24,SSE,155,0.0,1.0,87,0.00,,,0.00,WeatherTracker,2013-08-24 10:40:00,
2013-08-24 05:50:00,57.8,54.0,30.25,SSE,155,0.0,0.0,87,0.00,,,0.00,WeatherTracker,2013-08-24 10:50:00,
2013-08-24 05:55:00,57.7,53.9,30.25,SSE,155,0.0,0.0,87,0.00,,,0.00,WeatherTracker,2013-08-24 10:55:00,
2013-08-24 06:00:00,57.7,53.9,30.25,SSE,155,0.0,1.0,87,0.00,,,0.00,WeatherTracker,2013-08-24 11:00:00,
2013-08-24 06:10:00,57.7,53.9,30.25,SSE,155,0.0,1.0,87,0.00,,,0.00,WeatherTracker,2013-08-24 11:10:00,
2013-08-24 06:15:00,57.7,53.9,30.25,SSE,155,0.0,1.0,87,0.00,,,0.00,WeatherTracker,2013-08-24 11:15:00,
2013-08-24 06:20:00,57.8,54.0,30.25,SSE,155,0.0,1.0,87,0.00,,,0.00,WeatherTracker,2013-08-24 11:20:00,
2013-08-24 06:30:00,57.8,54.3,30.25,SSE,155,0.0,0.0,88,0.00,,,0.00,WeatherTracker,2013-08-24 11:30:00,
2013-08-24 06:35:00,57.8,54.3,30.26,SSE,155,0.0,2.0,88,0.00,,,0.00,WeatherTracker,2013-08-24 11:35:00,
2013-08-24 06:45:00,57.8,54.3,30.26,SSE,155,0.0,2.0,88,0.00,,,0.00,WeatherTracker,2013-08-24 11:45:00,
2013-08-24 06:50:00,57.8,54.3,30.26,SSE,155,0.0,2.0,88,0.00,,,0.00,WeatherTracker,2013-08-24 11:50:00,
2013-08-24 07:00:00,57.9,54.4,30.26,SSE,155,0.0,1.0,88,0.00,,,0.00,WeatherTracker,2013-08-24 12:00:00,
2013-08-24 07:05:00,58.0,54.8,30.26,SSE,155,0.0,1.0,89,0.00,,,0.00,WeatherTracker,2013-08-24 12:05:00,
2013-08-24 07:15:00,58.4,55.2,30.26,SSE,155,0.0,1.0,89,0.00,,,0.00,WeatherTracker,2013-08-24 12:15:00,
2013-08-24 07:20:00,58.6,55.4,30.26,SSE,155,1.0,1.0,89,0.00,,,0.00,WeatherTracker,2013-08-24 12:20:00,
2013-08-24 07:25:00,58.8,55.9,30.26,SSE,155,0.0,3.0,90,0.00,,,0.00,WeatherTracker,2013-08-24 12:25:00,
2013-08-24 07:30:00,59.0,56.1,30.26,SSE,162,0.0,3.0,90,0.00,,,0.00,WeatherTracker,2013-08-24 12:30:00,
2013-08-24 07:35:00,59.3,56.4,30.26,SSE,162,1.0,3.0,90,0.00,,,0.00,WeatherTracker,2013-08-24 12:35:00,
2013-08-24 07:45:00,59.7,56.8,30.26,SSE,162,1.0,4.0,90,0.00,,,0.00,WeatherTracker,2013-08-24 12:45:00,
2013-08-24 07:55:00,60.2,57.3,30.27,SSE,153,0.0,2.0,90,0.00,,,0.00,WeatherTracker,2013-08-24 12:55:00,
2013-08-24 08:00:00,60.4,57.5,30.27,South,180,0.0,3.0,90,0.00,,,0.00,WeatherTracker,2013-08-24 13:00:00,
2013-08-24 08:10:00,60.9,58.3,30.26,South,171,0.0,3.0,91,0.00,,,0.00,WeatherTracker,2013-08-24 13:10:00,
2013-08-24 08:15:00,61.1,58.5,30.26,SE,139,0.0,5.0,91,0.00,,,0.00,WeatherTracker,2013-08-24 13:15:00,
2013-08-24 08:25:00,61.7,59.0,30.26,SE,135,1.0,5.0,91,0.00,,,0.00,WeatherTracker,2013-08-24 13:25:00,
2013-08-24 08:30:00,62.0,59.3,30.27,SSE,158,0.0,5.0,91,0.00,,,0.00,WeatherTracker,2013-08-24 13:30:00,
2013-08-24 08:40:00,62.6,59.9,30.27,South,175,3.0,3.0,91,0.00,,,0.00,WeatherTracker,2013-08-24 13:40:00,
2013-08-24 08:45:00,62.9,60.2,30.27,South,180,1.0,4.0,91,0.00,,,0.00,WeatherTracker,2013-08-24 13:45:00,
2013-08-24 08:55:00,63.5,60.5,30.27,SE,132,0.0,6.0,90,0.00,,,0.00,WeatherTracker,2013-08-24 13:55:00,
2013-08-24 09:05:00,64.2,61.2,30.27,South,177,0.0,6.0,90,0.00,,,0.00,WeatherTracker,2013-08-24 14:05:00,
2013-08-24 09:10:00,64.6,61.3,30.27,SE,140,0.0,3.0,89,0.00,,,0.00,WeatherTracker,2013-08-24 14:10:00,
2013-08-24 09:15:00,65.9,62.2,30.27,SSE,163,0.0,3.0,88,0.00,,,0.00,WeatherTracker,2013-08-24 14:15:00,
2013-08-24 09:25:00,68.6,62.2,30.27,SE,142,0.0,3.0,80,0.00,,,0.00,WeatherTracker,2013-08-24 14:25:00,
2013-08-24 09:35:00,70.2,62.6,30.27,SE,126,1.0,7.0,77,0.00,,,0.00,WeatherTracker,2013-08-24 14:35:00,
2013-08-24 09:40:00,70.2,62.3,30.27,ESE,107,1.0,6.0,76,0.00,,,0.00,WeatherTracker,2013-08-24 14:40:00,
2013-08-24 09:50:00,70.7,62.0,30.27,West,261,1.0,5.0,74,0.00,,,0.00,WeatherTracker,2013-08-24 14:50:00,
2013-08-24 09:55:00,71.1,62.4,30.27,SE,134,1.0,6.0,74,0.00,,,0.00,WeatherTracker,2013-08-24 14:55:00,
2013-08-24 10:05:00,71.3,62.6,30.26,ESE,108,0.0,4.0,74,0.00,,,0.00,WeatherTracker,2013-08-24 15:05:00,
2013-08-24 10:10:00,72.0,64.0,30.26,SE,136,0.0,5.0,76,0.00,,,0.00,WeatherTracker,2013-08-24 15:10:00,
2013-08-24 10:20:00,72.6,64.2,30.26,SSE,150,2.0,5.0,75,0.00,,,0.00,WeatherTracker,2013-08-24 15:20:00,
2013-08-24 10:25:00,73.0,64.6,30.26,West,279,1.0,5.0,75,0.00,,,0.00,WeatherTracker,2013-08-24 15:25:00,
2013-08-24 10:30:00,73.3,64.5,30.26,South,176,0.0,5.0,74,0.00,,,0.00,WeatherTracker,2013-08-24 15:30:00,
2013-08-24 10:40:00,74.5,64.9,30.26,SE,136,2.0,6.0,72,0.00,,,0.00,WeatherTracker,2013-08-24 15:40:00,
2013-08-24 10:45:00,74.8,66.3,30.26,SW,223,1.0,6.0,75,0.00,,,0.00,WeatherTracker,2013-08-24 15:45:00,
2013-08-24 10:55:00,75.3,64.8,30.26,SSE,160,1.0,4.0,70,0.00,,,0.00,WeatherTracker,2013-08-24 15:55:00,
2013-08-24 11:00:00,75.5,66.6,30.25,SW,223,2.0,4.0,74,0.00,,,0.00,WeatherTracker,2013-08-24 16:00:00,
2013-08-24 11:10:00,76.6,66.5,30.25,NW,312,1.0,5.0,71,0.00,,,0.00,WeatherTracker,2013-08-24 16:10:00,
2013-08-24 11:15:00,76.9,65.9,30.25,South,179,0.0,4.0,69,0.00,,,0.00,WeatherTracker,2013-08-24 16:15:00,
2013-08-24 11:20:00,77.4,66.8,30.25,SSW,196,0.0,6.0,70,0.00,,,0.00,WeatherTracker,2013-08-24 16:20:00,
2013-08-24 11:25:00,77.8,67.2,30.25,East,88,2.0,6.0,70,0.00,,,0.00,WeatherTracker,2013-08-24 16:25:00,
2013-08-24 11:30:00,78.1,66.7,30.25,SE,146,1.0,6.0,68,0.00,,,0.00,WeatherTracker,2013-08-24 16:30:00,
2013-08-24 11:40:00,78.4,68.2,30.25,West,279,2.0,5.0,71,0.00,,,0.00,WeatherTracker,2013-08-24 16:40:00,
2013-08-24 11:45:00,79.0,67.1,30.25,SSE,163,1.0,8.0,67,0.00,,,0.00,WeatherTracker,2013-08-24 16:45:00,
2013-08-24 11:55:00,79.5,68.4,30.25,SSE,164,0.0,6.0,69,0.00,,,0.00,WeatherTracker,2013-08-24 16:55:00,
2013-08-24 12:00:00,79.8,68.7,30.24,ESE,103,2.0,7.0,69,0.00,,,0.00,WeatherTracker,2013-08-24 17:00:00,
2013-08-24 12:10:00,80.2,69.1,30.25,SSW,192,2.0,10.0,69,0.00,,,0.00,WeatherTracker,2013-08-24 17:10:00,
2013-08-24 12:15:00,80.2,68.2,30.24,SE,144,0.0,10.0,67,0.00,,,0.00,WeatherTracker,2013-08-24 17:15:00,
2013-08-24 12:25:00,80.5,69.4,30.24,SW,227,2.0,5.0,69,0.00,,,0.00,WeatherTracker,2013-08-24 17:25:00,
2013-08-24 12:30:00,81.1,71.2,30.24,South,172,1.0,4.0,72,0.00,,,0.00,WeatherTracker,2013-08-24 17:30:00,
2013-08-24 12:35:00,80.6,68.6,30.24,SW,225,1.0,5.0,67,0.00,,,0.00,WeatherTracker,2013-08-24 17:35:00,
2013-08-24 12:40:00,80.7,70.0,30.24,South,186,1.0,5.0,70,0.00,,,0.00,WeatherTracker,2013-08-24 17:40:00,
2013-08-24 12:50:00,81.2,69.6,30.23,SSW,198,2.0,7.0,68,0.00,,,0.00,WeatherTracker,2013-08-24 17:50:00,
2013-08-24 12:55:00,81.3,70.1,30.23,East,92,5.0,7.0,69,0.00,,,0.00,WeatherTracker,2013-08-24 17:55:00,
2013-08-24 13:00:00,81.8,70.6,30.23,NNE,28,2.0,5.0,69,0.00,,,0.00,WeatherTracker,2013-08-24 18:00:00,
2013-08-24 13:10:00,82.1,69.6,30.23,ESE,115,2.0,7.0,66,0.00,,,0.00,WeatherTracker,2013-08-24 18:10:00,
2013-08-24 13:15:00,82.3,69.8,30.23,NE,55,1.0,7.0,66,0.00,,,0.00,WeatherTracker,2013-08-24 18:15:00,
2013-08-24 13:20:00,82.8,69.8,30.23,SSE,162,3.0,5.0,65,0.00,,,0.00,WeatherTracker,2013-08-24 18:20:00,
2013-08-24 13:30:00,82.7,70.2,30.23,SE,130,2.0,7.0,66,0.00,,,0.00,WeatherTracker,2013-08-24 18:30:00,
2013-08-24 13:40:00,81.6,69.6,30.23,SSE,157,0.0,6.0,67,0.00,,,0.00,WeatherTracker,2013-08-24 18:40:00,
2013-08-24 13:45:00,82.0,70.4,30.23,SW,229,3.0,4.0,68,0.00,,,0.00,WeatherTracker,2013-08-24 18:45:00,
2013-08-24 13:50:00,82.7,70.2,30.22,East,95,1.0,4.0,66,0.00,,,0.00,WeatherTracker,2013-08-24 18:50:00,
2013-08-24 13:55:00,81.5,69.9,30.22,South,177,2.0,3.0,68,0.00,,,0.00,WeatherTracker,2013-08-24 18:55:00,
2013-08-24 14:05:00,83.0,70.0,30.22,WSW,246,1.0,5.0,65,0.00,,,0.00,WeatherTracker,2013-08-24 19:05:00,
2013-08-24 14:10:00,81.7,67.9,30.22,SSE,165,1.0,5.0,63,0.00,,,0.00,WeatherTracker,2013-08-24 19:10:00,
2013-08-24 14:15:00,81.4,68.0,30.22,South,189,2.0,5.0,64,0.00,,,0.00,WeatherTracker,2013-08-24 19:15:00,
2013-08-24 14:20:00,82.8,70.3,30.22,ESE,107,1.0,4.0,66,0.00,,,0.00,WeatherTracker,2013-08-24 19:20:00,
2013-08-24 14:30:00,82.8,68.4,30.22,SW,227,0.0,5.0,62,0.00,,,0.00,WeatherTracker,2013-08-24 19:30:00,
2013-08-24 14:35:00,82.5,69.5,30.22,WSW,239,1.0,5.0,65,0.00,,,0.00,WeatherTracker,2013-08-24 19:35:00,
2013-08-24 14:45:00,82.7,69.7,30.21,East,85,3.0,5.0,65,0.00,,,0.00,WeatherTracker,2013-08-24 19:45:00,
2013-08-24 14:50:00,82.5,70.0,30.21,South,186,2.0,7.0,66,0.00,,,0.00,WeatherTracker,2013-08-24 19:50:00,
2013-08-24 14:55:00,82.0,69.5,30.20,ESE,121,4.0,7.0,66,0.00,,,0.00,WeatherTracker,2013-08-24 19:55:00,
2013-08-24 15:05:00,82.7,70.6,30.20,East,92,7.0,7.0,67,0.00,,,0.00,WeatherTracker,2013-08-24 20:05:00,
2013-08-24 15:10:00,82.9,70.3,30.20,SSE,165,2.0,7.0,66,0.00,,,0.00,WeatherTracker,2013-08-24 20:10:00,
2013-08-24 15:15:00,82.3,68.9,30.19,WSW,248,0.0,7.0,64,0.00,,,0.00,WeatherTracker,2013-08-24 20:15:00,
2013-08-24 15:25:00,82.6,71.4,30.19,West,269,0.0,3.0,69,0.00,,,0.00,WeatherTracker,2013-08-24 20:25:00,
2013-08-24 15:30:00,82.8,69.8,30.19,WSW,238,0.0,3.0,65,0.00,,,0.00,WeatherTracker,2013-08-24 20:30:00,
2013-08-24 15:40:00,82.4,69.9,30.19,SSE,162,1.0,6.0,66,0.00,,,0.00,WeatherTracker,2013-08-24 20:40:00,
2013-08-24 15:45:00,82.9,69.9,30.19,SE,133,3.0,6.0,65,0.00,,,0.00,WeatherTracker,2013-08-24 20:45:00,
2013-08-24 15:50:00,82.4,69.4,30.19,SW,217,2.0,5.0,65,0.00,,,0.00,WeatherTracker,2013-08-24 20:50:00,
2013-08-24 16:00:00,81.2,69.2,30.19,South,184,0.0,5.0,67,0.00,,,0.00,WeatherTracker,2013-08-24 21:00:00,
2013-08-24 16:05:00,80.5,69.4,30.18,SSE,155,1.0,7.0,69,0.00,,,0.00,WeatherTracker,2013-08-24 21:05:00,
2013-08-24 16:10:00,81.4,69.4,30.18,SSE,163,1.0,7.0,67,0.00,,,0.00,WeatherTracker,2013-08-24 21:10:00,
2013-08-24 16:20:00,82.0,69.9,30.18,SSW,197,3.0,8.0,67,0.00,,,0.00,WeatherTracker,2013-08-24 21:20:00,
2013-08-24 16:25:00,81.8,68.4,30.18,SW,231,1.0,8.0,64,0.00,,,0.00,WeatherTracker,2013-08-24 21:25:00,
2013-08-24 16:30:00,81.6,70.0,30.17,East,96,0.0,8.0,68,0.00,,,0.00,WeatherTracker,2013-08-24 21:30:00,
2013-08-24 16:35:00,81.7,69.7,30.17,SE,130,0.0,6.0,67,0.00,,,0.00,WeatherTracker,2013-08-24 21:35:00,
2013-08-24 16:45:00,81.6,69.6,30.17,NE,35,0.0,7.0,67,0.00,,,0.00,WeatherTracker,2013-08-24 21:45:00,
2013-08-24 16:50:00,81.8,70.2,30.18,WSW,250,2.0,7.0,68,0.00,,,0.00,WeatherTracker,2013-08-24 21:50:00,
2013-08-24 16:55:00,81.6,70.0,30.18,SSE,156,1.0,5.0,68,0.00,,,0.00,WeatherTracker,2013-08-24 21:55:00,
2013-08-24 17:05:00,81.1,68.6,30.17,WSW,251,2.0,5.0,66,0.00,,,0.00,WeatherTracker,2013-08-24 22:05:00,
2013-08-24 17:10:00,80.7,68.3,30.18,SSW,197,0.0,6.0,66,0.00,,,0.00,WeatherTracker,2013-08-24 22:10:00,
2013-08-24 17:15:00,80.8,69.2,30.17,SE,141,0.0,6.0,68,0.00,,,0.00,WeatherTracker,2013-08-24 22:15:00,
2013-08-24 17:20:00,80.9,68.9,30.17,SSE,163,3.0,3.0,67,0.00,,,0.00,WeatherTracker,2013-08-24 22:20:00,
2013-08-24 17:30:00,80.7,69.1,30.17,SSE,165,0.0,7.0,68,0.00,,,0.00,WeatherTracker,2013-08-24 22:30:00,
2013-08-24 17:35:00,80.8,68.8,30.17,SSE,159,1.0,6.0,67,0.00,,,0.00,WeatherTracker,2013-08-24 22:35:00,
2013-08-24 17:40:00,80.5,68.9,30.17,SE,140,2.0,6.0,68,0.00,,,0.00,WeatherTracker,2013-08-24 22:40:00,
2013-08-24 17:45:00,80.3,68.8,30.17,South,171,0.0,8.0,68,0.00,,,0.00,WeatherTracker,2013-08-24 22:45:00,
2013-08-24 17:50:00,80.2,68.7,30.17,SE,139,0.0,8.0,68,0.00,,,0.00,WeatherTracker,2013-08-24 22:50:00,
2013-08-24 17:55:00,80.3,68.8,30.17,SSW,211,1.0,7.0,68,0.00,,,0.00,WeatherTracker,2013-08-24 22:55:00,
2013-08-24 18:05:00,79.8,67.4,30.17,SW,230,0.0,8.0,66,0.00,,,0.00,WeatherTracker,2013-08-24 23:05:00,
2013-08-24 18:10:00,79.6,67.7,30.17,SE,146,0.0,6.0,67,0.00,,,0.00,WeatherTracker,2013-08-24 23:10:00,
2013-08-24 18:15:00,79.4,67.5,30.17,SW,233,1.0,3.0,67,0.00,,,0.00,WeatherTracker,2013-08-24 23:15:00,
2013-08-24 18:20:00,79.1,67.6,30.17,SW,233,0.0,3.0,68,0.00,,,0.00,WeatherTracker,2013-08-24 23:20:00,
2013-08-24 18:30:00,78.8,68.2,30.17,SE,133,2.0,4.0,70,0.00,,,0.00,WeatherTracker,2013-08-24 23:30:00,
2013-08-24 18:35:00,78.7,68.5,30.17,SSE,154,0.0,3.0,71,0.00,,,0.00,WeatherTracker,2013-08-24 23:35:00,
2013-08-24 18:40:00,78.6,68.4,30.17,SSE,155,0.0,3.0,71,0.00,,,0.00,WeatherTracker,2013-08-24 23:40:00,
2013-08-24 18:45:00,78.7,68.5,30.17,SSE,157,0.0,4.0,71,0.00,,,0.00,WeatherTracker,2013-08-24 23:45:00,
2013-08-24 18:50:00,78.7,68.5,30.17,SSE,157,0.0,4.0,71,0.00,,,0.00,WeatherTracker,2013-08-24 23:50:00,
2013-08-24 19:00:00,78.6,68.4,30.17,SSE,163,1.0,3.0,71,0.00,,,0.00,WeatherTracker,2013-08-25 00:00:00,
2013-08-24 19:05:00,78.5,68.3,30.17,SE,126,0.0,4.0,71,0.00,,,0.00,WeatherTracker,2013-08-25 00:05:00,
2013-08-24 19:10:00,78.4,68.6,30.17,SE,136,0.0,4.0,72,0.00,,,0.00,WeatherTracker,2013-08-25 00:10:00,
2013-08-24 19:15:00,78.2,68.8,30.17,SE,140,0.0,3.0,73,0.00,,,0.00,WeatherTracker,2013-08-25 00:15:00,
2013-08-24 19:20:00,78.0,68.6,30.17,SE,141,1.0,3.0,73,0.00,,,0.00,WeatherTracker,2013-08-25 00:20:00,
2013-08-24 19:30:00,77.5,68.5,30.18,SE,140,0.0,2.0,74,0.00,,,0.00,WeatherTracker,2013-08-25 00:30:00,
2013-08-24 19:35:00,77.3,68.3,30.17,SSE,167,0.0,3.0,74,0.00,,,0.00,WeatherTracker,2013-08-25 00:35:00,
2013-08-24 19:40:00,77.0,68.5,30.17,SSE,163,0.0,3.0,75,0.00,,,0.00,WeatherTracker,2013-08-25 00:40:00,
2013-08-24 19:50:00,76.5,68.4,30.17,SSE,167,0.0,2.0,76,0.00,,,0.00,WeatherTracker,2013-08-25 00:50:00,
2013-08-24 19:55:00,76.2,68.1,30.17,SSE,167,1.0,2.0,76,0.00,,,0.00,WeatherTracker,2013-08-25 00:55:00,
2013-08-24 20:00:00,75.9,68.2,30.18,SSE,167,0.0,2.0,77,0.00,,,0.00,WeatherTracker,2013-08-25 01:00:00,
2013-08-24 20:05:00,75.6,67.9,30.18,SSE,152,1.0,3.0,77,0.00,,,0.00,WeatherTracker,2013-08-25 01:05:00,
2013-08-24 20:10:00,75.4,68.0,30.18,SSE,151,0.0,3.0,78,0.00,,,0.00,WeatherTracker,2013-08-25 01:10:00,
2013-08-24 20:20:00,75.0,68.0,30.18,SSE,159,1.0,4.0,79,0.00,,,0.00,WeatherTracker,2013-08-25 01:20:00,
2013-08-24 20:25:00,74.7,67.7,30.17,SE,140,3.0,3.0,79,0.00,,,0.00,WeatherTracker,2013-08-25 01:25:00,
2013-08-24 20:30:00,74.5,67.9,30.17,SSE,148,0.0,3.0,80,0.00,,,0.00,WeatherTracker,2013-08-25 01:30:00,
2013-08-24 20:35:00,74.3,67.4,30.18,SSE,151,2.0,3.0,79,0.00,,,0.00,WeatherTracker,2013-08-25 01:35:00,
2013-08-24 20:40:00,74.1,67.5,30.18,SSE,168,0.0,4.0,80,0.00,,,0.00,WeatherTracker,2013-08-25 01:40:00,
2013-08-24 20:45:00,73.9,67.3,30.18,South,182,0.0,5.0,80,0.00,,,0.00,WeatherTracker,2013-08-25 01:45:00,
2013-08-24 20:55:00,73.6,67.4,30.18,SSE,163,0.0,6.0,81,0.00,,,0.00,WeatherTracker,2013-08-25 01:55:00,
2013-08-24 21:00:00,73.4,67.2,30.18,SE,136,2.0,5.0,81,0.00,,,0.00,WeatherTracker,2013-08-25 02:00:00,
2013-08-24 21:10:00,73.2,67.0,30.18,SSE,160,0.0,4.0,81,0.00,,,0.00,WeatherTracker,2013-08-25 02:10:00,
2013-08-24 21:15:00,73.1,66.9,30.18,South,170,0.0,8.0,81,0.00,,,0.00,WeatherTracker,2013-08-25 02:15:00,
2013-08-24 21:25:00,73.0,67.2,30.18,SSE,165,0.0,5.0,82,0.00,,,0.00,WeatherTracker,2013-08-25 02:25:00,
2013-08-24 21:30:00,72.8,67.0,30.19,SSE,168,1.0,5.0,82,0.00,,,0.00,WeatherTracker,2013-08-25 02:30:00,
2013-08-24 21:40:00,72.7,66.9,30.19,SSE,158,0.0,5.0,82,0.00,,,0.00,WeatherTracker,2013-08-25 02:40:00,
2013-08-24 21:45:00,72.6,66.8,30.19,SSE,157,3.0,6.0,82,0.00,,,0.00,WeatherTracker,2013-08-25 02:45:00,
2013-08-24 21:55:00,72.5,67.0,30.19,SSE,162,2.0,8.0,83,0.00,,,0.00,WeatherTracker,2013-08-25 02:55:00,
2013-08-24 22:00:00,72.5,67.0,30.19,SSE,162,0.0,8.0,83,0.00,,,0.00,WeatherTracker,2013-08-25 03:00:00,
2013-08-24 22:05:00,72.4,66.9,30.19,SE,130,1.0,4.0,83,0.00,,,0.00,WeatherTracker,2013-08-25 03:05:00,
2013-08-24 22:15:00,72.4,66.9,30.19,SSE,147,1.0,6.0,83,0.00,,,0.00,WeatherTracker,2013-08-25 03:15:00,
2013-08-24 22:20:00,72.3,67.2,30.18,SSE,160,0.0,7.0,84,0.00,,,0.00,WeatherTracker,2013-08-25 03:20:00,
2013-08-24 22:30:00,72.3,67.2,30.18,SSE,148,1.0,5.0,84,0.00,,,0.00,WeatherTracker,2013-08-25 03:30:00,
2013-08-24 22:35:00,72.3,67.2,30.18,SE,145,1.0,4.0,84,0.00,,,0.00,WeatherTracker,2013-08-25 03:35:00,
2013-08-24 22:40:00,72.3,67.2,30.18,SSE,166,1.0,4.0,84,0.00,,,0.00,WeatherTracker,2013-08-25 03:40:00,
2013-08-24 22:45:00,72.3,67.2,30.18,SE,131,1.0,4.0,84,0.00,,,0.00,WeatherTracker,2013-08-25 03:45:00,
2013-08-24 22:55:00,72.3,67.2,30.18,South,184,0.0,5.0,84,0.00,,,0.00,WeatherTracker,2013-08-25 03:55:00,
2013-08-24 23:00:00,72.2,67.1,30.18,SE,142,1.0,4.0,84,0.00,,,0.00,WeatherTracker,2013-08-25 04:00:00,
2013-08-24 23:05:00,72.2,67.1,30.18,South,178,2.0,7.0,84,0.00,,,0.00,WeatherTracker,2013-08-25 04:05:00,
2013-08-24 23:10:00,72.2,67.1,30.18,South,188,1.0,7.0,84,0.00,,,0.00,WeatherTracker,2013-08-25 04:10:00,
2013-08-24 23:15:00,72.1,67.0,30.18,ESE,104,3.0,3.0,84,0.00,,,0.00,WeatherTracker,2013-08-25 04:15:00,
2013-08-24 23:20:00,72.1,67.0,30.18,SE,125,2.0,4.0,84,0.00,,,0.00,WeatherTracker,2013-08-25 04:20:00,
2013-08-24 23:25:00,72.0,66.9,30.17,SSW,213,2.0,7.0,84,0.00,,,0.00,WeatherTracker,2013-08-25 04:25:00,
2013-08-24 23:35:00,71.9,66.8,30.18,ESE,117,0.0,7.0,84,0.00,,,0.00,WeatherTracker,2013-08-25 04:35:00,
2013-08-24 23:40:00,71.9,66.8,30.18,ESE,103,3.0,7.0,84,0.00,,,0.00,WeatherTracker,2013-08-25 04:40:00,
2013-08-24 23:45:00,71.8,67.0,30.17,East,91,2.0,5.0,85,0.00,,,0.00,WeatherTracker,2013-08-25 04:45:00,
2013-08-24 23:55:00,71.7,66.9,30.18,SSE,162,1.0,5.0,85,0.00,,,0.00,WeatherTracker,2013-08-25 04:55:00,